Sign in

Goboko Update

Goboko is set to continue

The Goboko booking system is to continue under a new operator, a member of one of our longest-subscribed flying clubs

The new and previous operators of the site are working to ensure there will be no interruption to your booking service as the transition takes place. Of course, aircraft booking will continue to be free

Thank you for your continued commitment to Goboko

Info

Aviation weather

METAR KDAB 202353Z 07010KT 10SM FEW023TCU FEW150 28/25 A3005 RMK AO2 SLP173 TCU NE E T02830250 10322 20283 53006

TAF KDAB 202321Z 2100/2124 06009KT P6SM FEW025 FM210200 07004KT P6SM VCSH SCT025 FM211400 07008KT P6SM SCT025 FM211800 07012KT P6SM SCT035

Aviation weather from ADDS. Re-check weather before flight.

-